GFSSW_prec_cthk_159.txt.gz
RH
29 29 28 27 26 25 23 22 21 20 19 18 17 16 15 14 13 13 13 14 15 13 16 16 17 18 19 21 21 20 26 27 23 21 20 20 21 24 25 24 22 21 19 19 19
25 25 24 24 24 26 27 28 27 26 23 21 20 19 18 17 15 14 14 15 15 16 16 16 17 19 21 22 23 24 26 24 21 22 21 22 24 24 25 21 19 19 18 18 19
23 23 23 22 22 21 21 21 22 23 25 27 25 22 21 19 18 17 18 18 17 17 18 16 17 20 21 22 23 24 26 21 18 21 22 24 23 23 23 21 19 18 19 18 20
24 23 23 23 23 23 23 22 21 20 20 21 24 27 26 21 20 22 21 19 18 19 19 18 20 20 21 22 22 22 21 20 18 19 21 22 22 22 23 19 19 19 19 17 18
21 22 23 25 26 27 26 26 25 24 22 21 21 22 27 26 23 20 20 20 20 21 21 20 21 22 22 22 23 25 22 20 20 20 20 21 21 22 20 20 21 18 16 16 17
29 28 27 28 29 29 30 30 29 28 27 26 25 24 26 26 23 22 22 23 24 24 24 24 24 23 24 24 24 23 23 22 21 20 21 21 20 20 19 18 18 18 17 17 17
31 31 30 30 30 30 29 30 31 31 31 29 28 27 28 27 25 23 23 24 25 26 26 27 26 25 25 26 26 24 24 22 21 20 21 20 20 21 19 18 18 18 19 18 18
31 31 30 30 30 30 30 30 30 29 29 29 29 29 29 29 28 27 26 26 26 29 30 29 29 30 29 27 27 28 26 24 21 21 22 23 21 20 19 20 19 19 19 19 19
33 31 30 29 29 28 28 28 28 28 29 30 30 30 29 29 29 28 26 27 28 30 32 32 33 34 33 31 31 30 28 26 24 22 23 25 24 23 23 23 22 21 21 21 20
34 31 31 31 30 30 30 28 28 29 30 31 33 33 29 30 31 31 30 29 31 34 35 36 37 37 35 35 35 32 32 31 27 25 26 26 24 24 25 25 24 23 22 22 22
37 36 35 35 34 33 33 31 30 32 32 31 32 33 33 32 31 35 36 36 37 39 40 40 40 40 35 35 34 30 32 32 29 29 28 24 23 22 24 24 25 25 24 23 22
41 41 40 41 40 38 37 35 38 34 36 35 34 34 33 33 34 36 38 40 42 45 46 48 44 41 41 41 40 39 37 35 31 31 32 29 27 24 23 22 22 23 24 23 24
46 46 45 44 44 41 39 41 38 38 42 38 37 36 36 37 37 36 37 42 44 46 48 48 46 45 46 47 45 43 42 39 37 36 35 32 28 25 23 23 23 22 21 21 21
49 49 50 49 46 44 44 43 41 45 48 39 41 43 41 41 40 39 39 41 45 46 50 51 47 49 52 50 51 52 44 46 44 46 43 34 40 26 25 25 24 22 22 22 21
55 52 50 49 48 48 44 43 47 54 47 39 44 45 44 43 42 41 42 43 47 50 54 49 49 51 53 50 54 54 53 52 51 50 46 40 40 29 24 26 26 26 25 25 23
55 54 53 51 51 49 47 46 52 46 45 42 45 40 37 36 39 42 44 43 44 47 51 48 52 54 50 50 57 60 59 60 57 54 54 42 38 36 27 22 26 28 30 28 27
59 58 59 59 55 52 49 51 48 47 45 48 47 41 38 35 37 37 40 43 49 54 50 47 47 50 56 62 60 62 66 77 77 72 58 49 47 37 28 27 27 29 31 32 31
66 64 59 54 53 50 45 49 44 43 48 47 45 40 37 38 37 36 41 43 43 53 55 51 45 45 46 51 67 70 71 78 80 71 70 63 56 42 35 32 30 31 30 34 36
61 58 54 55 51 47 44 44 43 55 57 56 45 40 40 41 39 35 39 47 53 49 62 62 54 43 47 48 54 67 77 66 72 72 72 67 54 43 41 34 34 34 38 40 39
60 59 59 51 45 44 43 44 47 55 53 44 35 37 38 36 28 28 29 44 62 48 50 69 72 52 52 57 56 54 62 82 78 86 78 67 60 50 46 42 34 35 40 45 44
63 59 57 49 44 42 48 45 44 43 36 39 41 41 38 39 34 35 31 28 50 54 67 64 75 65 66 64 63 66 67 68 76 74 69 64 57 49 52 49 41 39 44 45 46
58 57 55 48 46 49 46 44 40 35 29 26 33 36 39 37 39 39 38 36 36 47 66 87 81 83 74 70 73 73 66 64 82 79 71 65 58 55 58 57 55 49 48 50 49
60 57 55 46 49 50 46 39 32 29 32 38 38 38 43 49 56 46 46 42 38 43 61 75 95 95 83 72 85 91 87 81 69 68 70 72 60 54 60 65 63 56 51 48 46
62 60 53 50 44 42 40 32 30 31 32 34 42 47 50 56 60 66 57 56 46 47 53 76 86 96 90 91 98 96 97 96 85 74 70 67 64 56 58 63 64 61 55 51 50
66 67 52 49 49 41 32 33 36 38 37 44 44 46 59 77 82 70 70 71 68 53 57 67 79 81 73 76 95 92 86 97 95 80 81 72 71 57 58 59 62 60 58 56 55
58 53 51 47 41 39 38 42 41 42 45 46 56 55 66 70 81 83 77 76 76 63 67 76 81 71 68 57 67 80 80 79 91 83 68 69 69 58 57 57 57 61 61 61 54
54 48 42 43 44 41 41 40 44 49 43 44 50 62 65 63 79 80 75 68 69 71 71 86 85 87 76 57 63 71 64 62 64 69 64 61 64 58 57 59 57 59 60 59 57

GFSSW_prec_cthk_162.txt.gz
RH
23 23 24 23 23 23 23 24 24 25 25 23 20 19 18 17 16 15 14 14 14 15 16 15 17 17 17 20 20 19 19 17 19 18 20 22 21 22 23 27 29 30 26 24 24
22 21 21 21 20 20 20 20 20 20 21 22 24 24 21 18 16 15 17 16 16 16 17 18 18 18 21 22 22 22 20 19 17 17 18 19 19 21 23 23 23 23 23 21 21
21 21 21 22 22 22 22 22 22 21 20 20 20 20 24 23 20 19 20 19 19 18 20 20 20 20 20 22 23 24 19 19 17 17 19 19 19 21 22 24 24 24 21 21 23
20 20 20 22 23 23 23 24 24 24 23 23 21 20 20 23 22 20 20 19 18 18 21 22 22 24 24 23 23 21 20 19 18 17 18 20 19 19 18 19 21 23 20 20 24
26 25 25 24 23 24 24 26 26 26 26 26 26 25 24 25 22 22 21 21 19 19 22 22 24 24 25 25 23 22 21 21 21 21 20 19 18 18 18 19 20 21 21 19 19
28 27 27 28 28 28 28 28 28 28 28 29 28 28 27 27 25 23 21 21 21 22 24 23 24 25 26 25 24 25 23 22 21 20 21 20 18 19 17 17 17 19 20 18 18
30 29 28 28 29 29 30 30 29 29 29 29 29 28 28 29 27 26 24 23 23 26 28 27 27 27 28 27 27 26 26 23 22 21 21 22 20 18 17 18 18 18 18 18 19
31 30 28 29 29 29 28 28 28 28 27 27 28 28 28 28 28 28 28 27 26 27 29 30 29 30 31 30 29 28 28 26 23 23 24 24 20 20 18 18 18 19 18 19 19
33 32 31 30 30 30 29 29 28 27 27 27 28 28 28 28 28 28 26 28 29 31 32 32 34 35 35 34 33 32 27 27 25 23 24 24 21 23 22 22 21 20 19 19 20
38 36 35 34 34 34 32 30 30 30 31 31 31 33 31 31 31 31 31 30 34 34 36 36 37 36 38 38 35 32 34 29 26 26 26 26 24 22 22 22 21 21 21 20 21
42 40 39 38 38 38 37 34 33 34 32 32 34 36 36 34 34 35 35 35 35 38 38 40 39 38 39 40 37 35 33 31 28 31 31 28 25 21 22 22 20 19 22 21 21
46 44 43 42 41 39 37 35 34 34 35 36 34 33 34 34 35 35 36 37 37 38 41 45 40 40 44 45 43 41 40 37 34 34 33 31 29 24 23 22 22 21 20 20 22
48 46 46 45 42 39 38 37 36 38 40 37 36 38 39 40 40 39 40 42 41 40 44 41 39 42 45 48 49 48 46 41 40 40 38 36 34 25 23 23 24 24 21 20 21
49 49 47 44 42 40 39 38 38 43 43 37 39 44 44 42 42 41 42 42 42 41 44 42 40 44 46 46 50 49 48 49 48 48 47 42 37 31 25 23 25 25 23 22 21
53 51 49 46 44 42 40 40 44 48 46 39 46 46 42 41 41 44 41 43 41 44 47 43 47 48 48 46 50 47 52 54 56 54 53 48 48 32 29 24 24 26 26 26 24
58 55 54 52 51 48 46 45 49 46 46 41 43 40 40 40 42 40 39 41 44 47 45 41 44 47 47 49 53 59 59 57 59 58 57 48 47 35 33 28 27 27 30 30 28
64 60 60 58 55 51 46 45 43 41 40 44 46 43 42 42 42 41 40 40 46 49 44 42 38 39 43 46 49 56 62 66 72 69 58 60 55 43 37 38 32 30 29 31 31
63 62 63 59 54 48 44 48 41 38 45 49 47 41 39 43 44 44 42 39 50 49 45 40 36 39 37 37 48 54 54 66 71 68 68 68 64 51 49 49 41 34 31 33 36
68 68 59 52 52 51 49 46 47 53 52 51 42 37 37 45 43 39 37 48 50 45 53 51 40 36 45 46 49 55 60 50 66 65 74 64 56 52 54 52 47 39 35 40 44
67 61 60 60 50 48 45 46 52 56 54 49 36 37 35 40 40 33 30 31 46 48 46 47 46 32 44 58 55 62 60 72 78 79 80 62 61 56 57 55 53 43 42 44 47
70 71 72 56 51 48 51 52 51 49 43 37 38 38 35 33 32 32 30 26 34 40 51 76 75 40 46 47 56 67 70 72 70 64 59 58 65 56 59 64 64 54 50 51 51
70 74 68 55 58 59 53 48 42 40 34 32 32 30 32 32 30 37 32 32 34 38 35 58 78 74 60 59 67 71 88 73 64 63 59 58 59 58 62 68 68 66 58 53 52
73 72 72 65 68 62 53 47 41 37 36 34 30 28 28 33 44 40 36 43 42 48 44 40 48 64 49 56 77 84 95 91 97 86 71 60 54 56 62 72 70 66 63 60 58
78 74 66 66 60 49 45 43 42 40 35 31 31 35 36 34 41 53 56 61 61 52 54 58 59 59 59 62 95 97 93 98 94 95 71 58 66 59 58 70 70 67 64 59 58
68 72 70 69 59 47 39 41 38 32 31 32 35 37 45 55 51 59 76 64 58 57 58 66 63 51 55 59 64 85 85 85 97 95 94 92 75 68 59 69 69 71 65 63 60
72 73 69 58 54 50 47 42 33 32 32 35 36 36 40 48 62 67 63 61 65 60 64 70 71 63 61 47 55 58 71 73 81 94 92 85 77 69 67 64 68 70 72 69 65
72 66 59 59 53 47 39 36 35 33 35 34 39 41 42 45 53 57 61 59 66 68 63 69 63 62 62 46 45 48 42 59 62 66 79 77 69 72 69 67 70 68 66 68 66

GFSSW_prec_cthk_165.txt.gz
RH
20 20 20 20 20 20 19 19 19 19 19 20 20 22 22 21 18 16 17 16 16 15 16 19 20 21 21 23 20 20 19 18 18 20 19 19 18 23 24 26 26 30 31 33 36
20 20 20 20 21 21 21 21 21 21 20 20 20 19 19 20 22 21 20 18 15 15 18 20 23 23 24 26 25 21 21 20 19 18 18 18 18 19 20 20 23 23 25 27 32
17 17 18 19 20 21 22 23 22 22 23 22 21 20 20 19 22 19 20 20 19 18 22 22 25 26 26 26 26 24 22 22 21 18 17 17 19 19 20 21 25 26 24 25 31
24 23 23 22 22 21 21 21 22 23 25 25 24 23 22 22 23 21 21 21 19 18 21 22 23 25 25 28 27 27 23 21 21 19 18 18 19 19 19 19 24 23 22 24 25
26 26 26 26 25 25 25 25 26 26 26 26 26 25 25 27 26 23 21 21 21 22 22 23 24 25 27 25 25 27 25 23 24 21 21 19 18 18 18 19 19 20 20 20 19
28 28 28 27 27 27 27 27 27 27 27 27 27 27 27 28 26 24 22 21 23 24 25 25 25 27 27 27 27 25 27 25 24 23 24 21 18 19 16 17 18 19 19 18 19
29 28 27 27 26 26 26 25 25 26 26 26 26 26 28 27 26 25 24 27 27 26 28 27 28 30 29 29 28 29 26 25 24 23 24 24 22 18 17 17 17 18 18 19 19
33 31 30 29 29 28 28 27 27 26 26 25 25 26 28 26 25 25 29 29 29 28 31 32 30 31 33 32 32 29 27 27 26 26 25 25 22 20 20 19 18 17 19 19 19
39 36 35 34 34 33 33 32 30 29 29 29 30 32 29 28 28 29 27 32 33 33 33 33 32 32 34 36 34 35 34 32 31 30 27 28 24 26 25 21 21 21 20 20 20
43 40 40 39 38 37 36 35 34 33 33 33 37 37 34 34 33 32 33 32 36 36 36 35 36 38 37 37 37 37 36 36 34 31 30 29 28 27 28 28 25 22 21 21 21
47 44 43 41 40 38 37 36 33 34 33 33 33 35 35 36 35 37 37 36 36 41 39 39 39 36 38 39 39 40 38 36 34 31 31 33 32 29 28 26 23 22 20 20 23
47 45 44 42 41 40 39 37 37 37 35 35 35 35 35 35 33 33 38 40 40 40 41 41 42 39 39 41 42 44 45 41 39 39 38 37 35 33 27 25 23 23 22 21 21
48 47 45 42 40 38 37 37 36 40 41 36 36 39 40 40 40 40 40 42 41 41 41 41 41 41 42 43 46 46 47 46 46 47 45 41 37 35 31 29 25 23 24 24 23
52 49 49 45 43 41 44 38 39 44 45 43 42 46 43 43 44 42 43 45 44 44 42 40 41 41 39 41 47 47 47 48 50 53 52 49 47 41 36 31 29 24 25 25 24
53 50 50 46 44 45 41 41 43 51 52 42 47 43 39 40 42 48 42 49 48 47 47 40 40 42 40 39 50 46 51 53 52 51 53 51 53 41 40 36 30 30 28 26 26
55 52 50 50 48 45 41 39 43 52 48 41 42 43 40 39 42 39 41 45 47 46 43 39 41 41 41 44 45 46 52 56 58 59 58 46 53 40 44 42 36 40 32 30 30
59 55 53 49 51 47 43 44 49 40 35 41 47 47 44 42 45 43 42 43 45 44 42 40 40 39 42 45 44 47 53 61 64 63 56 51 52 39 43 45 41 41 40 38 34
59 53 52 52 51 49 44 43 43 39 42 47 46 44 41 42 44 44 43 44 55 50 48 48 40 34 38 43 46 48 52 62 65 52 57 62 52 40 42 43 48 50 46 41 38
57 56 54 56 55 48 46 45 45 48 52 51 43 39 38 38 38 40 35 35 51 49 49 46 39 30 41 48 52 47 61 48 67 55 60 52 49 43 43 43 47 51 54 49 43
58 58 62 59 51 51 52 50 52 54 50 47 42 39 37 36 33 33 32 31 43 50 51 53 58 35 31 37 40 53 56 73 79 93 73 51 50 46 51 47 50 55 59 60 52
72 77 76 63 61 57 55 56 60 56 52 46 44 40 32 31 32 33 31 27 28 38 42 40 50 31 38 35 40 39 65 63 70 82 60 54 44 47 55 53 53 59 65 66 60
82 83 80 77 66 63 57 61 66 62 47 43 41 40 37 32 30 32 30 29 31 40 42 37 41 37 38 39 52 55 85 77 98 78 64 53 46 54 52 60 58 65 73 71 68
92 90 81 68 72 70 74 64 52 47 44 45 38 35 32 30 33 32 35 37 39 43 45 47 43 48 33 27 27 70 88 82 72 94 94 77 51 58 57 64 64 66 77 79 76
91 88 80 70 73 73 65 57 51 46 42 36 32 30 33 33 34 40 37 39 54 53 54 59 58 62 62 50 51 73 90 96 95 83 90 97 86 71 72 67 62 70 78 80 80
86 84 81 83 75 66 61 55 47 48 37 36 31 28 31 38 37 38 37 47 49 51 50 57 59 58 56 53 46 54 59 85 89 95 90 81 96 94 81 67 70 81 80 77 77
91 83 80 76 72 67 62 54 46 43 37 29 27 30 32 35 43 44 43 38 47 48 54 60 65 70 70 56 49 47 45 61 76 80 93 86 88 83 78 67 59 85 84 78 77
85 82 77 75 68 58 50 45 40 35 31 28 28 32 34 36 40 38 40 37 44 51 55 64 77 79 68 53 50 55 36 36 55 62 64 78 74 84 70 72 67 77 81 81 75

GFSSW_prec_cthk_171.txt.gz
RH
17 17 17 17 17 17 18 19 20 20 20 20 20 19 19 18 17 17 17 20 19 17 16 16 17 18 19 20 21 23 28 26 23 23 22 20 19 19 17 17 23 30 35 34 38
18 17 17 18 19 20 19 19 18 18 18 18 18 19 20 21 19 20 18 19 20 19 18 17 19 21 21 23 25 24 26 22 22 23 22 22 20 18 18 18 20 26 33 37 36
25 25 25 24 24 23 23 23 23 22 22 22 22 21 21 21 21 21 18 18 17 18 18 22 25 26 25 26 28 28 27 23 20 24 23 20 20 19 18 17 19 23 29 26 27
26 26 25 25 24 23 23 23 22 23 22 23 22 22 22 22 23 21 21 22 20 19 22 22 23 26 26 26 25 28 28 26 24 24 23 22 20 18 17 15 17 19 25 30 31
29 28 27 26 25 24 24 23 23 22 22 21 21 21 21 23 23 25 25 24 22 21 22 23 23 23 26 25 26 27 25 24 25 25 24 23 22 23 19 16 17 18 21 24 30
33 32 31 30 29 28 28 27 26 26 24 23 22 22 23 26 24 24 24 24 23 22 22 24 25 26 26 27 27 25 25 25 25 23 23 23 23 23 20 20 19 17 18 21 24
38 38 37 35 34 33 32 31 30 29 29 28 26 26 27 26 27 26 25 25 26 26 25 26 28 29 29 29 28 28 28 28 26 25 24 24 25 24 22 24 23 21 18 18 19
41 42 41 39 38 36 35 33 32 31 30 29 28 29 28 29 29 28 26 28 30 32 30 31 33 32 31 31 31 32 31 33 28 29 29 30 31 28 26 26 25 23 22 21 19
44 44 43 42 39 37 36 35 33 31 29 28 30 33 30 29 29 29 27 29 33 33 32 31 35 35 34 34 37 34 37 32 32 31 31 32 32 29 29 29 28 26 24 23 22
46 46 46 45 42 39 37 34 32 30 30 31 35 35 32 30 32 32 29 27 29 31 32 32 33 34 36 40 46 42 41 38 38 37 36 37 35 33 31 29 28 28 27 25 24
51 49 48 46 43 40 38 34 31 30 29 28 27 24 22 22 22 23 24 28 28 32 37 36 39 41 41 43 42 43 44 45 39 40 44 44 40 37 34 32 33 32 31 30 26
52 51 50 50 46 43 38 32 29 28 29 25 24 23 24 25 24 23 24 28 30 35 37 42 45 42 43 47 48 49 51 49 43 45 50 46 39 38 38 38 39 37 36 34 30
53 51 51 48 43 37 37 35 30 29 32 26 27 27 31 28 31 29 28 29 31 35 36 41 40 44 48 50 54 52 55 51 50 50 48 49 38 37 35 38 40 40 40 39 36
56 54 52 51 43 42 41 39 34 33 39 32 31 36 33 33 34 32 29 33 35 37 38 39 41 44 44 50 54 52 54 55 55 55 53 49 49 36 36 37 37 39 39 41 41
62 57 58 54 51 46 45 42 37 38 49 36 38 34 29 29 29 33 34 34 36 38 41 45 49 52 54 53 59 54 59 58 56 57 54 46 63 29 33 30 30 33 36 37 42
62 56 56 54 51 50 48 42 40 51 52 37 36 34 32 31 32 31 32 32 33 35 38 38 43 51 56 55 59 59 61 61 61 63 65 43 65 33 37 34 32 29 29 27 31
58 61 61 59 54 54 51 47 55 56 39 39 39 38 35 35 34 35 39 43 46 45 49 46 47 50 53 55 55 57 62 82 82 80 64 47 65 40 39 40 37 33 29 28 31
57 60 62 62 59 59 55 54 59 50 47 43 42 39 38 38 37 37 38 46 50 51 53 55 50 50 53 56 52 51 56 78 96 85 74 58 72 48 51 49 46 37 35 31 31
52 61 63 63 61 60 57 61 55 49 50 48 45 46 47 43 44 40 41 51 52 47 52 53 46 41 39 39 41 43 53 54 74 78 89 81 66 60 61 57 48 40 40 42 36
55 61 58 60 65 60 61 57 54 53 55 50 48 48 51 48 46 41 44 46 52 51 50 52 52 42 38 32 30 33 34 51 76 96 83 68 63 81 79 69 70 54 54 56 55
58 61 57 64 62 62 65 60 64 66 63 56 50 51 52 52 49 51 50 52 48 47 44 42 43 35 30 27 28 24 21 27 57 78 93 76 77 80 84 74 74 66 71 72 71
62 64 63 62 65 64 71 75 75 69 64 62 57 58 59 58 54 52 48 45 42 39 37 33 37 41 35 24 17 21 28 40 65 74 82 89 89 88 91 77 68 68 71 72 85
68 70 72 71 76 75 71 81 81 65 66 65 68 64 60 56 53 48 43 38 34 34 34 31 37 53 33 23 25 49 50 60 74 83 89 89 90 76 80 77 77 71 69 73 85
72 79 84 79 83 92 89 82 78 72 66 72 68 63 59 54 46 42 35 30 29 29 34 44 44 50 61 50 49 48 54 63 67 72 81 84 70 58 69 67 77 83 84 86 89
80 92 83 71 78 94 90 79 77 76 78 74 68 60 52 53 44 36 29 28 22 19 27 44 51 48 43 44 47 53 55 52 63 60 66 61 68 54 47 46 63 93 93 93 89
90 89 79 98 96 90 95 89 81 85 81 73 64 54 48 42 35 33 25 23 22 23 24 29 40 46 43 42 48 57 47 43 42 51 52 52 48 57 55 54 59 79 90 93 90
75 83 94 98 96 95 89 91 85 87 75 62 54 48 41 33 26 23 21 20 23 27 30 37 45 56 50 48 54 50 46 43 41 38 44 48 42 38 45 49 56 71 81 91 93

GFSSW_prec_cthk_174.txt.gz
RH
17 16 16 16 15 16 17 17 17 17 17 17 17 17 17 17 18 18 18 18 18 18 17 16 17 18 18 19 21 22 27 28 21 23 22 21 20 18 17 16 17 21 27 30 40
25 24 23 23 23 23 22 22 22 21 20 20 20 20 20 20 19 19 18 17 18 18 17 15 17 19 20 21 23 24 26 22 18 21 22 23 23 22 20 17 15 20 23 28 35
25 25 24 24 23 23 22 21 21 20 20 20 20 20 21 21 21 21 18 18 19 19 19 22 24 24 24 25 25 27 27 23 21 23 24 23 22 22 23 20 17 20 25 26 28
28 28 27 26 25 24 23 22 21 21 20 19 19 19 19 20 21 21 22 23 22 21 22 25 26 26 26 25 25 28 26 24 23 23 24 24 22 20 20 18 18 20 27 34 26
34 33 32 31 30 29 28 26 25 25 24 23 22 21 21 22 22 23 24 24 22 21 23 24 26 25 26 26 26 28 27 26 25 24 23 23 23 23 20 19 19 18 21 23 28
37 37 36 35 34 33 32 30 29 28 27 26 25 24 24 25 24 25 25 25 24 23 24 26 25 25 26 28 28 27 26 26 25 25 25 25 24 24 21 21 21 21 20 21 25
40 39 38 36 35 34 33 32 30 29 28 27 26 26 26 25 25 25 26 25 25 25 23 25 27 29 29 30 30 30 29 28 27 27 26 26 26 24 23 25 24 24 23 21 22
42 40 39 38 37 36 34 32 30 30 28 27 26 27 27 27 27 27 26 25 27 29 29 28 30 30 30 29 29 30 30 32 30 28 29 30 30 28 28 28 27 26 25 25 23
45 43 41 40 40 38 35 33 30 29 28 27 27 29 28 27 27 25 22 22 25 27 28 27 28 29 29 31 34 33 33 30 29 32 34 35 33 32 32 30 29 29 29 28 26
47 46 45 43 42 40 38 34 31 30 29 29 32 33 27 23 21 23 23 22 25 26 27 28 29 31 32 36 40 37 38 35 35 36 37 38 35 35 35 34 33 32 31 30 29
50 48 45 44 43 41 37 34 31 28 27 26 25 25 21 21 20 22 23 25 26 28 32 33 36 38 36 36 35 36 39 41 41 42 43 42 37 39 38 38 36 37 37 35 34
54 52 47 46 45 43 39 35 30 29 27 24 23 22 22 24 24 24 24 27 29 32 34 40 43 37 37 40 43 46 49 48 44 46 50 46 37 41 42 40 37 38 35 35 37
60 58 53 51 47 44 42 40 34 31 33 26 25 25 27 27 30 27 27 29 32 34 36 42 37 37 40 44 49 49 56 55 53 52 52 51 41 41 40 40 38 35 35 37 39
63 61 59 57 48 48 44 42 36 35 40 33 32 35 34 34 34 31 30 32 35 37 38 39 37 39 41 46 51 50 57 58 58 58 55 55 54 40 37 35 32 29 30 32 34
65 64 61 56 53 51 48 47 42 44 51 37 41 36 33 34 33 34 32 34 35 34 36 42 42 42 42 50 57 55 60 64 61 61 58 59 64 35 38 35 29 27 26 32 35
63 63 61 57 55 54 49 48 47 53 53 40 37 34 32 31 30 29 30 30 32 34 37 38 38 40 41 49 61 60 63 65 67 69 66 59 63 34 46 44 39 38 35 33 30
64 57 51 53 50 52 50 44 51 53 38 36 36 34 33 33 30 31 36 37 40 39 43 42 41 42 43 48 54 58 67 91 90 85 70 62 70 40 46 53 53 44 37 34 32
54 51 46 47 50 49 47 42 49 43 42 37 37 37 36 36 36 37 41 45 43 46 49 44 44 44 47 49 51 54 60 80 90 82 78 69 72 52 52 58 57 56 50 46 41
49 46 48 51 54 56 51 48 45 43 45 48 49 47 43 41 44 43 44 51 49 48 50 52 52 46 44 41 46 47 53 51 66 64 83 63 54 54 53 58 64 67 63 62 47
47 47 51 55 57 54 53 53 51 48 49 50 54 52 48 45 53 53 50 51 50 54 53 53 51 46 43 37 36 35 33 45 58 82 85 63 66 56 57 62 66 71 70 65 58
51 54 50 56 59 57 57 51 52 51 55 58 56 57 57 57 57 53 55 59 60 56 52 48 48 44 37 34 29 25 21 25 43 59 72 68 63 64 61 64 67 68 73 73 69
52 61 55 56 61 62 60 59 60 58 57 67 71 68 60 66 63 61 64 69 62 55 50 45 43 47 41 29 27 28 41 51 60 55 61 74 68 65 57 60 64 69 74 70 71
60 61 58 57 61 63 64 58 66 74 70 71 70 71 64 65 67 67 66 63 54 45 44 39 44 54 29 25 29 38 45 51 61 69 73 76 63 63 65 58 57 61 71 90 82
62 67 70 68 72 76 68 79 86 89 80 83 74 69 69 71 70 65 60 54 46 42 42 42 44 40 40 35 37 45 44 46 62 73 74 66 54 43 53 59 59 69 84 89 81
80 83 83 88 79 98 92 98 96 88 67 71 83 80 77 79 70 57 53 49 42 37 34 35 44 43 44 39 38 42 41 37 50 61 74 56 60 43 48 47 50 67 68 79 82
73 73 98 89 98 91 97 96 96 89 82 76 78 83 76 69 58 54 46 39 32 29 25 27 32 34 36 38 39 38 33 40 43 44 46 49 46 38 35 46 42 54 61 64 82
64 70 76 74 80 82 81 91 87 86 88 90 94 74 68 55 48 40 33 27 24 25 27 29 35 41 52 44 54 56 49 60 61 47 49 46 31 29 29 37 44 44 53 53 70